• In Czech Republic
  • List of Countries
  • For 7 days
  • Water Temperature
  • Satellite Maps
  • Weather Map
  • Weather Widgets
  • user-avatar
    Login

    Hourly Weather Schilde

    Today, 19 June, Tuesday

    Time Temperature Precipitation Wind Pressure Humidity
    00:00 +14°C° 0 mm 4 mps 765 mmHg 92%
    01:00 +14°C° 0 mm 4 mps 765 mmHg 93%
    02:00 +14°C° 0 mm 4 mps 765 mmHg 94%
    03:00 +14°C° 0 mm 4 mps 765 mmHg 95%
    04:00 +15°C° 0 mm 4 mps 766 mmHg 94%
    05:00 +15°C° 0 mm 4 mps 766 mmHg 92%
    06:00 +17°C° 0 mm 4 mps 766 mmHg 90%
    07:00 +18°C° 0 mm 4 mps 766 mmHg 89%
    08:00 +18°C° 0 mm 4 mps 767 mmHg 88%
    09:00 +19°C° 0 mm 3 mps 767 mmHg 87%
    10:00 +19°C° 0 mm 3 mps 767 mmHg 85%
    11:00 +20°C° 0 mm 3 mps 767 mmHg 83%
    12:00 +20°C° 0 mm 3 mps 767 mmHg 81%
    13:00 +21°C° 0.1 mm 3 mps 767 mmHg 79%
    14:00 +21°C° 0.1 mm 3 mps 767 mmHg 77%
    15:00 +22°C° 0.1 mm 3 mps 767 mmHg 75%
    16:00 +22°C° 0 mm 3 mps 767 mmHg 76%
    17:00 +23°C° 0 mm 2 mps 767 mmHg 76%
    18:00 +23°C° 0 mm 2 mps 767 mmHg 77%
    19:00 +20°C° 0 mm 2 mps 767 mmHg 81%
    20:00 +20°C° 0 mm 1 mps 767 mmHg 86%
    21:00 +19°C° 0 mm 1 mps 767 mmHg 90%
    22:00 +19°C° 0 mm 1 mps 767 mmHg 91%
    23:00 +18°C° 0 mm 1 mps 767 mmHg 92%

    Tomorrow, 20 June, Wednesday

    Time Temperature Precipitation Wind Pressure Humidity
    00:00 +17°C° 0 mm 2 mps 767 mmHg 94%
    01:00 +17°C° 0 mm 2 mps 767 mmHg 94%
    02:00 +16°C° 0 mm 2 mps 767 mmHg 95%
    03:00 +16°C° 0 mm 2 mps 767 mmHg 95%
    04:00 +17°C° 0 mm 2 mps 766 mmHg 93%
    05:00 +18°C° 0 mm 2 mps 766 mmHg 90%
    06:00 +18°C° 0 mm 3 mps 766 mmHg 87%
    07:00 +20°C° 0 mm 3 mps 766 mmHg 81%
    08:00 +22°C° 0 mm 3 mps 766 mmHg 75%
    09:00 +24°C° 0 mm 3 mps 766 mmHg 68%
    10:00 +25°C° 0 mm 3 mps 766 mmHg 66%
    11:00 +26°C° 0 mm 3 mps 766 mmHg 64%
    12:00 +27°C° 0 mm 4 mps 765 mmHg 61%
    13:00 +26°C° 0 mm 4 mps 765 mmHg 62%
    14:00 +26°C° 0 mm 4 mps 765 mmHg 63%
    15:00 +26°C° 0 mm 4 mps 765 mmHg 64%
    16:00 +26°C° 0 mm 3 mps 764 mmHg 67%
    17:00 +25°C° 0 mm 3 mps 764 mmHg 69%
    18:00 +25°C° 0 mm 3 mps 764 mmHg 71%
    19:00 +22°C° 0 mm 3 mps 764 mmHg 77%
    20:00 +20°C° 0 mm 3 mps 764 mmHg 83%
    21:00 +18°C° 0 mm 2 mps 764 mmHg 89%
    22:00 +18°C° 0 mm 3 mps 764 mmHg 91%
    23:00 +17°C° 0 mm 3 mps 764 mmHg 92%

    Day after tomorrow, 21 June, Thursday

    Time Temperature Precipitation Wind Pressure Humidity
    00:00 +17°C° 0 mm 3 mps 763 mmHg 93%
    01:00 +16°C° 0 mm 3 mps 763 mmHg 94%
    02:00 +16°C° 0 mm 3 mps 763 mmHg 94%
    03:00 +16°C° 0 mm 3 mps 763 mmHg 94%
    04:00 +15°C° 0.1 mm 4 mps 763 mmHg 91%
    05:00 +15°C° 0.1 mm 5 mps 763 mmHg 89%
    06:00 +15°C° 0.1 mm 6 mps 763 mmHg 86%
    07:00 +15°C° 0.1 mm 6 mps 763 mmHg 80%
    08:00 +15°C° 0.1 mm 6 mps 764 mmHg 74%
    09:00 +15°C° 0.1 mm 6 mps 764 mmHg 67%
    10:00 +16°C° 0 mm 7 mps 764 mmHg 61%
    11:00 +16°C° 0 mm 7 mps 765 mmHg 56%
    12:00 +17°C° 0 mm 7 mps 765 mmHg 50%
    13:00 +17°C° 0 mm 7 mps 765 mmHg 51%
    14:00 +16°C° 0 mm 7 mps 766 mmHg 52%
    15:00 +16°C° 0 mm 7 mps 766 mmHg 53%
    16:00 +15°C° 0 mm 7 mps 766 mmHg 56%
    17:00 +15°C° 0 mm 6 mps 766 mmHg 60%
    18:00 +14°C° 0 mm 6 mps 767 mmHg 63%
    19:00 +13°C° 0 mm 5 mps 767 mmHg 66%
    20:00 +12°C° 0 mm 4 mps 767 mmHg 69%
    21:00 +10°C° 0 mm 4 mps 768 mmHg 72%
    22:00 +10°C° 0 mm 3 mps 768 mmHg 72%
    23:00 +10°C° 0 mm 3 mps 768 mmHg 72%

    22 June, Friday

    Time Temperature Precipitation Wind Pressure Humidity
    00:00 +9°C° 0 mm 3 mps 768 mmHg 72%
    01:00 +9°C° 0 mm 3 mps 768 mmHg 73%
    02:00 +8°C° 0 mm 4 mps 768 mmHg 73%
    03:00 +8°C° 0 mm 4 mps 768 mmHg 74%
    04:00 +10°C° 0 mm 4 mps 768 mmHg 73%
    05:00 +10°C° 0 mm 5 mps 768 mmHg 72%
    06:00 +12°C° 0 mm 5 mps 768 mmHg 71%
    07:00 +13°C° 0.1 mm 6 mps 768 mmHg 71%
    08:00 +13°C° 0.1 mm 6 mps 768 mmHg 71%
    09:00 +13°C° 0.1 mm 6 mps 768 mmHg 71%
    10:00 +14°C° 0.1 mm 6 mps 768 mmHg 69%
    11:00 +14°C° 0.1 mm 6 mps 768 mmHg 67%
    12:00 +15°C° 0.1 mm 6 mps 768 mmHg 65%
    13:00 +15°C° 0.1 mm 6 mps 768 mmHg 65%
    14:00 +16°C° 0.1 mm 6 mps 768 mmHg 64%
    15:00 +16°C° 0.1 mm 7 mps 768 mmHg 63%
    16:00 +15°C° 0 mm 6 mps 768 mmHg 65%
    17:00 +15°C° 0 mm 6 mps 768 mmHg 68%
    18:00 +14°C° 0 mm 6 mps 768 mmHg 71%
    19:00 +13°C° 0 mm 5 mps 768 mmHg 73%
    20:00 +13°C° 0 mm 4 mps 769 mmHg 76%
    21:00 +12°C° 0 mm 4 mps 769 mmHg 79%
    22:00 +11°C° 0 mm 3 mps 769 mmHg 81%
    23:00 +10°C° 0 mm 3 mps 769 mmHg 84%

    23 June, Saturday

    Time Temperature Precipitation Wind Pressure Humidity
    00:00 +10°C° 0 mm 3 mps 769 mmHg 87%
    01:00 +10°C° 0 mm 3 mps 769 mmHg 87%
    02:00 +10°C° 0 mm 3 mps 769 mmHg 87%
    03:00 +9°C° 0 mm 3 mps 769 mmHg 87%
    04:00 +11°C° 0 mm 3 mps 769 mmHg 83%
    05:00 +12°C° 0 mm 3 mps 769 mmHg 78%
    06:00 +13°C° 0 mm 3 mps 769 mmHg 74%
    07:00 +13°C° 0 mm 3 mps 769 mmHg 72%
    08:00 +14°C° 0 mm 4 mps 769 mmHg 69%
    09:00 +15°C° 0 mm 4 mps 769 mmHg 66%
    10:00 +17°C° 0 mm 4 mps 769 mmHg 62%
    11:00 +18°C° 0 mm 4 mps 769 mmHg 57%
    12:00 +18°C° 0 mm 4 mps 769 mmHg 53%
    13:00 +19°C° 0 mm 5 mps 769 mmHg 52%
    14:00 +19°C° 0 mm 5 mps 768 mmHg 52%
    15:00 +19°C° 0 mm 5 mps 768 mmHg 51%
    16:00 +17°C° 0 mm 5 mps 768 mmHg 55%
    17:00 +18°C° 0 mm 4 mps 768 mmHg 60%
    18:00 +17°C° 0 mm 4 mps 768 mmHg 64%
    19:00 +14°C° 0 mm 4 mps 768 mmHg 70%
    20:00 +13°C° 0 mm 3 mps 768 mmHg 77%
    21:00 +11°C° 0 mm 3 mps 769 mmHg 83%
    22:00 +12°C° 0 mm 2 mps 769 mmHg 85%
    23:00 +10°C° 0 mm 2 mps 769 mmHg 87%

    24 June, Sunday

    Time Temperature Precipitation Wind Pressure Humidity
    00:00 +11°C° 0 mm 1 mps 769 mmHg 90%
    01:00 +10°C° 0 mm 1 mps 768 mmHg 90%
    02:00 +10°C° 0 mm 1 mps 768 mmHg 90%
    03:00 +10°C° 0 mm 1 mps 768 mmHg 91%
    04:00 +11°C° 0 mm 1 mps 768 mmHg 87%
    05:00 +12°C° 0 mm 1 mps 768 mmHg 83%
    06:00 +13°C° 0 mm 1 mps 768 mmHg 79%
    07:00 +15°C° 0 mm 2 mps 768 mmHg 71%
    08:00 +16°C° 0 mm 2 mps 768 mmHg 63%
    09:00 +17°C° 0 mm 2 mps 768 mmHg 56%
    10:00 +18°C° 0 mm 2 mps 768 mmHg 52%
    11:00 +20°C° 0 mm 2 mps 768 mmHg 47%
    12:00 +21°C° 0 mm 3 mps 767 mmHg 43%
    13:00 +21°C° 0 mm 3 mps 767 mmHg 43%
    14:00 +21°C° 0 mm 3 mps 767 mmHg 44%
    15:00 +22°C° 0 mm 3 mps 767 mmHg 44%
    16:00 +21°C° 0 mm 3 mps 767 mmHg 48%
    17:00 +20°C° 0 mm 3 mps 767 mmHg 52%
    18:00 +20°C° 0 mm 3 mps 767 mmHg 56%
    19:00 +18°C° 0 mm 3 mps 767 mmHg 60%
    20:00 +17°C° 0 mm 3 mps 767 mmHg 64%
    21:00 +14°C° 0 mm 3 mps 767 mmHg 68%
    22:00 +13°C° 0 mm 3 mps 767 mmHg 71%
    23:00 +14°C° 0 mm 2 mps 767 mmHg 75%
    Show more